Theta_e
317 317 321 320 319 318 319 318 318 318 319 320 322 322 323 323 323 325 325 326 326 326 326 326 325 326 325 326 326 327 324 326 320 323 326 328 327 327 327 326 327 326 324
317 318 321 321 320 318 318 318 318 318 320 321 323 323 323 323 324 325 325 326 326 325 325 325 324 325 325 325 326 324 325 326 323 319 323 324 325 325 324 323 325 324 322
316 316 320 320 318 318 317 318 318 319 320 322 323 323 322 323 322 322 323 324 326 326 326 325 325 325 324 324 325 324 325 325 325 322 321 323 323 324 321 321 319 318 319
314 318 319 319 319 318 319 319 319 320 321 322 323 323 323 324 323 322 323 325 326 326 326 326 326 326 325 324 324 324 324 323 323 322 321 319 320 320 321 320 319 320 318
313 318 318 318 319 319 319 320 320 321 322 323 324 323 324 323 323 322 322 323 325 326 326 326 326 324 321 323 325 324 324 323 322 321 319 318 317 318 320 319 319 317 318
312 318 318 319 320 319 319 319 320 321 321 323 323 324 323 324 305 311 319 322 325 326 323 323 323 320 316 313 315 316 321 323 321 322 320 319 318 320 316 318 316 317 315
312 318 318 319 319 318 319 319 319 319 320 321 320 322 323 320 302 305 311 325 324 325 324 324 325 323 323 321 312 312 313 312 316 322 322 321 319 319 317 315 316 316 317
312 316 317 319 319 318 318 318 316 316 317 317 317 320 320 317 302 303 310 325 324 325 326 326 326 324 322 324 325 324 324 323 323 323 324 323 324 321 322 320 319 318 318
311 314 315 317 318 317 317 316 314 314 314 315 316 320 320 316 300 302 317 325 325 325 326 325 325 324 305 308 324 321 316 314 304 306 306 304 303 305 313 320 319 320 318
312 313 313 317 318 316 316 315 314 314 314 314 314 318 313 318 300 302 316 323 321 321 322 321 311 318 301 304 321 316 314 312 312 308 308 307 308 307 305 323 321 318 310
314 313 312 316 317 317 315 315 314 313 313 312 311 311 315 315 312 300 306 322 320 319 320 318 320 304 299 298 304 315 313 310 304 307 308 309 312 312 312 315 318 314 311
313 313 311 313 318 316 316 315 313 312 311 310 309 309 308 311 304 300 301 308 310 319 318 318 314 298 297 296 304 301 297 303 312 313 312 312 312 311 310 310 311 311 312
313 312 311 311 318 317 316 314 312 312 311 309 310 309 309 307 306 300 299 299 302 316 318 310 297 295 295 298 297 296 297 312 314 314 314 313 311 308 307 307 308 306 305
312 312 310 309 314 317 318 317 314 312 311 310 310 310 310 308 306 305 308 307 301 306 302 302 299 298 297 300 301 300 308 314 315 314 312 308 306 305 304 306 304 303 301
312 312 310 310 312 317 317 316 317 317 313 313 312 312 310 309 308 301 305 309 311 305 301 302 303 303 302 301 301 303 307 312 313 309 307 305 305 304 303 305 304 303 300
310 309 310 311 310 316 316 311 295 300 303 299 300 309 313 305 298 295 294 295 294 294 304 304 304 304 304 302 301 301 305 309 312 308 307 306 305 304 303 302 303 301 296
310 309 308 310 312 314 316 316 314 306 299 299 299 299 301 305 296 295 293 291 292 296 309 305 305 305 306 305 303 302 304 310 308 307 306 305 304 304 301 301 300 298 296
312 302 309 311 313 315 316 317 317 316 315 314 298 301 296 296 295 293 291 293 298 299 305 306 306 305 304 305 305 304 306 306 307 305 304 304 304 302 301 300 297 296 295
311 309 311 312 315 314 317 317 317 317 317 314 304 297 294 293 293 291 292 307 303 302 303 304 306 306 303 302 304 305 307 306 305 304 303 303 303 302 301 299 297 292 291
313 305 307 312 315 316 316 316 316 315 315 314 310 312 299 300 304 302 299 303 306 306 304 304 306 306 304 302 300 302 305 303 302 303 302 302 302 302 300 299 297 296 295
315 310 306 313 315 316 316 316 316 315 315 314 314 309 295 307 309 307 304 303 306 307 307 306 306 306 306 304 303 302 304 304 304 303 301 301 301 299 299 297 296 294 293
316 313 312 313 315 315 316 317 316 316 315 314 314 308 290 306 309 308 308 307 307 309 310 309 308 307 308 307 305 304 303 303 303 302 301 300 298 296 296 294 293 291 290
316 314 312 314 315 309 312 316 316 316 316 315 315 310 301 305 309 309 308 309 309 309 309 307 308 308 310 310 309 308 305 304 303 302 299 298 297 294 293 292 291 289 289
317 315 313 313 313 313 314 314 315 307 315 316 315 313 310 308 308 309 310 310 309 309 310 307 307 308 308 309 309 309 309 307 305 303 300 298 295 292 292 291 289 288 287
317 316 315 314 312 312 313 314 314 315 314 314 313 314 314 311 309 309 310 309 308 308 308 307 307 307 308 308 307 306 294 291 301 297 299 297 294 293 292 290 288 287 285
318 316 316 315 314 314 313 312 313 314 313 313 312 313 315 313 312 309 309 308 307 308 307 307 307 306 305 305 303 292 289 290 293 294 297 296 294 292 291 289 287 286 285
Wind_Speed
5 5 5 5 5 4 3 4 4 3 3 3 3 4 3 5 4 5 4 3 5 5 5 6 7 7 7 7 5 6 7 8 9 7 8 10 11 11 8 6 5 4 4
5 5 4 5 5 5 4 4 4 4 2 3 4 4 4 4 5 6 5 5 6 5 6 7 8 7 9 8 7 8 8 7 9 13 6 5 10 9 6 6 4 3 3
5 5 5 5 5 5 5 4 4 4 4 3 3 5 5 5 5 4 4 5 6 5 6 7 8 10 9 8 8 8 8 8 9 7 5 3 5 5 4 3 3 3 2
5 5 6 5 5 5 5 5 5 4 4 4 4 5 5 5 5 5 6 6 6 6 7 7 7 10 11 11 8 9 9 9 8 9 7 6 4 3 2 3 3 1 2
6 6 5 5 5 5 5 5 5 5 4 4 6 6 5 5 4 7 8 8 6 7 8 7 6 10 10 10 8 9 10 8 7 7 5 3 3 3 4 2 3 2 1
6 6 6 6 6 5 5 5 5 4 4 4 4 6 6 4 9 9 8 7 5 7 8 8 8 10 10 12 13 9 7 9 9 6 4 6 5 4 3 3 4 2 2
6 6 6 6 7 5 5 5 5 4 3 4 4 4 5 6 8 10 9 6 5 7 8 8 8 5 9 10 12 13 11 11 5 4 8 4 4 6 6 4 3 3 2
6 6 6 7 7 6 6 4 4 3 4 4 3 3 5 4 10 10 10 8 6 7 8 10 10 7 7 9 9 7 5 4 2 2 3 4 3 6 6 4 4 5 4
7 7 6 6 8 7 7 6 3 4 3 2 3 4 6 5 6 9 8 8 8 9 8 9 9 7 7 10 7 6 3 2 5 4 4 3 5 9 7 6 4 4 3
8 9 7 7 10 9 7 7 4 3 4 4 4 3 6 6 5 8 7 5 8 5 5 5 9 6 8 7 5 4 5 4 5 6 5 6 6 4 6 3 5 6 4
8 7 7 7 9 9 8 4 5 5 5 5 5 3 3 4 6 7 8 4 6 6 5 4 4 7 7 6 4 4 2 6 7 6 6 5 5 6 3 2 3 4 4
8 8 7 7 6 6 9 5 5 7 6 5 5 4 3 2 3 6 9 7 7 6 5 3 3 6 6 8 6 6 9 6 6 6 6 5 5 5 6 7 9 9 8
8 8 7 7 5 7 8 8 5 5 6 5 3 3 3 3 2 4 5 6 8 4 3 4 9 7 9 6 3 8 8 4 6 5 5 4 4 7 9 9 10 13 13
10 7 7 9 6 5 4 6 7 6 4 5 4 3 2 2 3 3 3 4 8 6 7 6 6 6 5 5 5 4 3 4 5 6 6 6 7 6 6 5 8 8 9
10 8 7 6 9 7 5 5 7 7 10 8 6 6 6 4 5 7 8 5 4 5 8 3 2 2 2 2 2 3 3 4 5 5 7 7 7 7 6 6 7 5 7
11 7 7 7 7 7 7 4 7 1 9 6 6 9 6 8 12 13 10 7 12 14 3 3 3 4 5 5 4 4 3 5 5 7 7 7 8 8 8 5 6 7 8
14 10 8 8 8 8 7 7 7 2 5 8 9 10 10 12 13 13 11 9 11 8 3 4 4 7 7 7 6 6 5 5 5 7 7 7 7 8 8 8 7 8 8
13 15 10 9 8 8 9 9 8 8 7 4 5 7 9 5 8 9 16 13 4 4 3 5 7 7 7 7 7 6 5 5 6 7 7 7 8 9 9 8 7 8 8
13 11 11 10 9 9 8 8 8 8 8 4 3 2 5 7 8 12 16 5 8 8 8 7 6 7 7 7 7 7 6 7 7 7 7 8 8 9 9 8 8 10 11
13 15 13 11 9 9 8 9 8 8 7 7 6 8 6 6 5 6 8 7 6 7 7 9 8 7 7 8 7 7 6 6 7 7 8 8 8 8 9 10 9 10 8
11 11 15 10 11 11 10 11 9 9 9 8 9 8 12 9 9 8 8 9 9 9 9 9 8 8 8 7 7 8 9 9 9 8 8 8 8 8 7 7 6 6 7
11 11 13 13 11 11 11 10 10 10 10 10 9 6 12 8 7 8 9 9 10 10 9 9 8 8 9 10 10 10 10 10 9 9 10 11 10 9 8 7 7 7 6
7 12 12 10 11 10 8 10 10 10 10 10 9 7 8 9 9 9 9 9 8 8 8 8 8 8 8 9 9 10 12 13 13 13 13 12 11 12 12 9 6 7 5
11 10 13 12 10 10 11 11 10 11 11 10 9 9 9 10 11 12 10 8 8 9 8 9 9 12 10 9 9 9 9 8 9 12 17 15 14 16 14 13 9 9 5
8 10 11 12 11 12 10 10 10 10 10 10 9 10 9 9 9 9 8 8 7 8 9 9 7 9 11 13 10 10 10 14 17 17 14 16 17 17 13 11 12 8 9
7 9 9 8 9 10 10 10 10 9 10 9 8 8 9 9 9 7 6 7 6 6 6 6 7 11 13 12 14 16 17 19 19 21 17 18 18 14 10 13 16 9 10
Wind_Direction
163 160 192 161 150 159 146 138 143 129 136 139 114 104 105 98 99 105 102 113 111 125 120 120 105 113 109 105 106 97 92 105 102 105 108 118 111 114 110 108 130 148 162
165 167 186 158 141 161 148 151 145 138 154 165 133 117 115 112 109 123 117 101 102 96 102 98 104 109 110 109 105 103 105 105 115 118 118 127 131 126 110 120 146 154 143
157 161 157 154 142 152 157 154 144 139 144 137 128 125 130 130 118 105 96 87 81 90 101 112 123 121 115 114 115 115 113 108 106 107 106 81 100 105 106 109 133 121 126
154 153 154 151 145 145 142 133 128 141 139 135 135 127 125 122 116 107 90 97 84 86 89 91 105 119 123 129 119 116 115 117 121 120 106 84 91 91 99 131 136 168 130
154 157 159 130 121 126 128 123 126 131 131 132 121 123 128 120 120 116 113 112 87 90 93 91 94 107 112 121 128 126 128 128 130 122 113 104 114 145 167 152 107 81 85
162 164 145 130 126 128 132 137 134 133 129 126 127 136 138 125 136 124 127 126 112 112 102 102 108 99 97 104 112 99 125 135 132 132 128 145 148 146 142 137 126 156 153
165 158 149 140 131 141 140 138 139 139 136 128 114 132 134 136 143 139 129 129 110 107 111 120 110 109 115 107 89 94 97 101 89 123 144 147 147 166 144 132 157 164 116
169 166 150 147 142 143 135 137 120 114 138 135 129 130 132 138 153 133 120 119 114 106 112 118 118 113 111 111 119 118 106 79 87 124 157 174 177 158 159 152 143 112 101
174 174 165 156 152 152 149 152 150 130 122 132 138 137 127 139 141 132 114 122 120 114 113 119 126 128 129 124 122 118 95 99 51 107 91 117 150 145 145 125 126 122 92
184 183 165 155 155 165 159 162 147 131 129 124 118 133 129 146 170 140 127 121 114 115 87 102 100 126 145 131 113 133 143 157 136 113 111 86 89 145 149 78 154 144 138
181 161 159 162 164 165 155 158 143 131 120 113 106 106 125 162 171 170 145 130 126 130 139 139 165 157 167 157 131 146 154 136 119 120 115 96 77 86 85 64 115 128 132
164 164 164 169 161 146 161 149 143 135 130 133 125 102 89 91 142 187 171 141 144 138 158 161 157 175 173 171 174 169 124 126 128 118 111 106 108 105 92 88 86 82 67
158 171 164 156 162 154 148 146 138 143 147 155 154 147 143 129 124 176 186 159 160 142 151 147 134 146 151 156 182 138 144 153 135 137 144 139 133 120 113 96 91 90 74
171 175 159 160 156 155 143 157 154 161 158 161 163 171 164 154 159 156 162 145 125 95 100 87 93 92 74 97 106 151 179 179 159 150 146 129 129 138 135 135 116 107 95
172 172 166 165 169 164 153 170 177 187 176 174 192 173 166 192 213 180 164 166 169 128 110 100 104 105 131 147 142 165 168 156 149 139 143 145 148 147 137 131 129 122 113
169 170 178 170 172 168 163 144 48 33 207 224 174 173 199 196 172 180 187 154 132 143 102 149 177 182 182 185 182 177 187 181 168 157 157 158 156 153 145 141 128 124 122
175 172 169 172 176 174 178 181 187 60 116 183 191 201 191 185 177 187 179 133 158 153 153 174 187 193 203 198 192 188 187 187 154 165 165 162 152 147 146 143 128 122 117
175 164 170 180 184 185 188 193 195 191 196 184 207 195 214 198 194 168 137 120 132 245 202 192 205 199 201 199 198 201 191 171 180 171 168 162 157 152 148 144 139 130 128
171 173 178 177 181 181 183 187 193 195 199 170 137 145 115 136 142 147 167 185 185 198 208 218 209 197 197 196 199 198 191 186 179 169 167 162 159 155 151 146 141 148 146
183 173 171 174 171 177 182 187 190 193 193 193 191 202 141 131 176 180 194 204 200 206 205 215 216 208 198 193 189 183 177 167 174 176 170 163 160 159 153 151 155 157 160
177 170 172 173 181 185 185 192 193 196 202 201 210 188 176 183 195 189 192 201 209 211 211 212 212 209 200 183 180 186 184 176 173 167 161 156 152 147 142 130 103 77 98
173 172 177 187 181 185 192 190 191 195 199 201 210 187 171 200 195 198 201 203 207 212 212 210 212 206 195 186 182 179 184 180 173 168 160 153 136 121 110 98 103 108 96
208 172 181 185 189 184 176 189 192 197 201 205 203 179 181 201 210 210 209 209 205 206 206 204 208 204 194 192 190 190 182 186 179 165 157 145 137 126 120 116 119 114 105
161 208 181 183 180 183 186 191 196 198 200 199 197 196 193 200 206 213 213 207 202 207 203 205 212 209 198 190 188 188 190 170 162 162 152 145 135 129 131 132 136 114 123
190 179 208 179 179 184 186 191 198 202 205 201 201 204 201 202 206 210 210 203 198 198 205 206 206 205 189 185 179 165 131 136 146 145 138 131 125 128 138 133 128 142 137
211 191 195 192 176 179 186 190 196 194 208 209 204 213 208 205 211 208 203 199 199 201 189 191 189 181 170 166 155 141 141 138 138 140 137 134 134 136 142 134 144 143 149